User: anonymous   Login
Location: Unspecified
(0.0000°N, 0.0000°E)
Time: 09:46:53
(UTC+00:00)
Language:

Cosmos 1633 - Orbit

View from above orbital plane
View from above orbital plane
View from above satellite
View from above satellite

Ground track
Ground track

The orbit data is extracted from the following two-line orbital elements,

1 15592U 85020A   18111.17201062  .00001481  00000-0  50503-4 0  9999
2 15592  82.5405  10.5075 0013754 160.3957 199.7815 15.29441621811350
Epoch (UTC): 21 April 2018 04:07:41
Eccentricity: 0.0013754
inclination: 82.5405°
perigee height: 468 km
apogee height: 487 km
right ascension of ascending node: 10.5075°
argument of perigee: 160.3957°
revolutions per day: 15.29441621
mean anomaly at epoch: 199.7815°
orbit number at epoch: 81135

The dashed part of the orbit path shows where the satellite is in the earth's shadow,  

DLR